CDT,Max TemperatureF,Mean TemperatureF,Min TemperatureF,Max Dew PointF,MeanDew PointF,Min DewpointF,Max Humidity, Mean Humidity, Min Humidity, Max Sea Level PressureIn, Mean Sea Level PressureIn, Min Sea Level PressureIn, Max VisibilityMiles, Mean VisibilityMiles, Min VisibilityMiles, Max Wind SpeedMPH, Mean Wind SpeedMPH, Max Gust SpeedMPH,PrecipitationIn, CloudCover, Events, WindDirDegrees
2013-9-1,84,74,64,74,66,55,100,75,37,30.03,29.93,29.76,10,10,2,34,7,45,0.65,2,Rain-Thunderstorm,13
2013-9-2,80,68,57,65,61,56,100,78,45,30.12,30.07,30.03,10,10,7,7,2,,0.00,0,,18
2013-9-3,84,70,55,64,60,54,99,73,40,30.12,30.07,30.04,10,10,10,9,2,,0.00,0,,160
2013-9-4,84,72,60,69,63,59,94,75,48,30.19,30.12,30.07,10,10,10,10,4,,0.00,0,,149
2013-9-5,87,76,64,67,64,63,93,70,45,30.20,30.15,30.10,10,10,10,9,6,,0.00,1,Rain,131
2013-9-6,93,80,67,69,66,64,89,63,39,30.12,30.03,29.94,10,10,10,15,8,20,0.00,0,,163
2013-9-7,98,84,71,76,69,67,90,67,36,29.95,29.92,29.87,10,10,7,15,9,17,0.00,0,,164
2013-9-8,96,84,71,76,70,64,100,67,41,29.92,29.87,29.80,10,8,2,10,4,,0.00,0,,136
2013-9-9,96,84,72,65,60,55,72,47,26,29.89,29.85,29.82,10,10,10,24,11,31,0.00,0,,196
2013-9-10,96,83,70,72,62,58,90,52,31,30.06,29.96,29.89,10,10,10,18,10,28,0.00,1,,185
2013-9-11,85,78,71,72,70,66,100,84,54,30.15,30.10,30.07,10,10,2,14,5,18,0.16,3,Rain-Thunderstorm,26
2013-9-12,82,71,59,71,62,50,99,73,33,30.23,30.18,30.12,10,9,3,13,5,17,0.29,3,Rain-Thunderstorm,40
2013-9-13,74,63,52,56,51,46,94,66,38,30.23,30.17,30.09,10,10,10,9,4,,0.00,0,,91
2013-9-14,80,67,54,56,52,49,88,60,37,30.09,30.00,29.88,10,10,10,15,7,22,0.00,1,,156
2013-9-15,70,66,61,67,62,57,98,87,62,30.22,30.04,29.87,10,9,2,18,8,22,0.27,6,Rain-Thunderstorm,26
2013-9-16,62,59,56,59,56,54,100,90,82,30.30,30.24,30.19,10,9,3,13,8,18,0.10,7,Rain,82
2013-9-17,77,74,70,72,66,65,91,74,65,30.19,30.03,29.88,10,7,1,17,7,22,0.02,6,Rain-Thunderstorm,162
2013-9-18,90,79,68,68,65,64,87,65,44,29.89,29.80,29.72,10,10,7,25,14,32,0.00,0,,179
2013-9-19,84,71,58,66,61,52,98,71,51,30.05,29.85,29.76,10,10,1,25,11,33,1.09,3,Rain-Thunderstorm,277
2013-9-20,71,60,48,54,48,42,94,69,35,30.13,30.05,29.99,10,10,5,16,8,24,0.00,0,,328
2013-9-21,80,62,45,54,50,44,96,68,37,30.03,29.96,29.86,10,10,7,12,3,,0.00,0,,150
2013-9-22,79,66,54,55,51,47,89,61,33,29.92,29.86,29.80,10,10,10,20,10,28,0.00,0,,160
2013-9-23,77,66,54,53,50,48,81,58,36,29.84,29.76,29.68,10,10,10,24,12,36,0.00,1,,149
2013-9-24,70,62,53,58,55,52,95,76,57,29.92,29.82,29.68,10,10,7,21,9,25,0.00,5,,329
2013-9-25,80,64,47,62,56,47,100,77,45,29.93,29.85,29.74,10,7,0,14,4,21,0.00,2,Fog,147
2013-9-26,88,76,63,61,59,56,87,60,36,29.80,29.76,29.71,10,10,10,24,16,33,0.00,0,,150
2013-9-27,87,78,68,62,59,57,73,55,41,29.85,29.81,29.74,10,10,10,25,15,33,0.00,1,Rain,161
2013-9-28,75,62,49,65,50,42,97,69,39,30.09,29.93,29.69,10,10,2,22,14,31,0.54,3,Rain-Thunderstorm,290
2013-9-29,75,60,44,47,44,42,95,62,30,30.09,30.01,29.91,10,10,10,16,4,22,0.00,0,,182
2013-9-30,79,64,50,53,50,46,90,63,33,29.92,29.82,29.74,10,10,7,18,10,26,0.00,0,,184